This is the latest recevied weather packets stored in our database for station/object N9XRG. If no packets are shown the sender has not sent any weather packets the latest 10 day(s).
| Time | Temp. | Humidity | Pressure | Rain* | Wind** | Luminosity | Snow |
|---|---|---|---|---|---|---|---|
| 1778107861 | 13.33° C | 44% | 1013.1 hPa | 0 mm | - | 91 W/m² | - |
| 1778107559 | 13.33° C | 46% | 1012.9 hPa | 0 mm | - | 93 W/m² | - |
| 1778107255 | 13.89° C | 45% | 1012.8 hPa | 0 mm | - | 107 W/m² | - |
| 1778106951 | 13.89° C | 43% | 1013.3 hPa | 0 mm | - | 103 W/m² | - |
| 1778106648 | 13.89° C | 43% | 1013.1 hPa | 0 mm | - | 108 W/m² | - |
| 1778106345 | 13.89° C | 43% | 1013.2 hPa | 0 mm | - | 119 W/m² | - |
| 1778106041 | 13.89° C | 41% | 1013.1 hPa | 0 mm | - | 139 W/m² | - |
| 1778105739 | 14.44° C | 43% | 1013.1 hPa | 0 mm | - | 151 W/m² | - |
| 1778105437 | 14.44° C | 45% | 1012.9 hPa | 0 mm | - | 199 W/m² | - |
| 1778105132 | 13.89° C | 44% | 1012.9 hPa | 0 mm | - | 202 W/m² | - |
| 1778104828 | 13.89° C | 41% | 1013.1 hPa | 0 mm | - | 185 W/m² | - |
| 1778104525 | 14.44° C | 45% | 1012.8 hPa | 0 mm | - | 168 W/m² | - |
| 1778104221 | 14.44° C | 43% | 1012.9 hPa | 0 mm | - | 209 W/m² | - |
| 1778103918 | 13.89° C | 44% | 1013.2 hPa | 0 mm | - | 246 W/m² | - |
| 1778103615 | 13.89° C | 43% | 1012.6 hPa | 0 mm | - | 260 W/m² | - |
| 1778103313 | 13.89° C | 41% | 1012.7 hPa | 0 mm | - | 227 W/m² | - |
| 1778103010 | 13.89° C | 42% | 1012.9 hPa | 0 mm | - | 211 W/m² | - |
| 1778102706 | 13.89° C | 43% | 1013.1 hPa | 0 mm | - | 252 W/m² | - |
| 1778102401 | 14.44° C | 42% | 1012.9 hPa | 0 mm | - | 296 W/m² | - |
| 1778102097 | 14.44° C | 40% | 1013.1 hPa | 0 mm | - | 270 W/m² | - |
| 1778101795 | 15° C | 41% | 1013.1 hPa | 0 mm | - | 288 W/m² | - |
| 1778101491 | 14.44° C | 41% | 1012.9 hPa | 0 mm | - | 584 W/m² | - |
| 1778101188 | 14.44° C | 41% | 1012.8 hPa | 0 mm | - | 252 W/m² | - |
| 1778100884 | 15° C | 40% | 1012.9 hPa | 0 mm | - | 282 W/m² | - |
| 1778100580 | 15° C | 38% | 1013.1 hPa | 0 mm | - | 281 W/m² | - |
* Rain latest hour (hover to see other rain measurements)
** Current wind speed in m/s (hover to see current wind gust speed)